Location: Les Gaucher
(44.0329°N, 5.2238°E)
Time: 18:26:46
(UTC+00:00)

Daily predictions for brighter satellites

Satellite Brightness Start Highest point End
(mag) Time Altitude Azimuth Time Altitude Azimuth Time Altitude Azimuth
Cosmos 2360 4.3 17:41:22 10° S 17:46:57 59° ESE 17:52:34 10° NNE
SL-24 R/B - RUBIN 2 4.1 17:42:36 10° NW 17:48:29 87° ENE 17:53:35 10° SE
RESURS DK-1 2.7 17:45:04 10° NNW 17:49:12 73° WSW 17:53:18 10° SSE
ERS-2 3.1 17:47:30 10° NE 17:50:36 26° E 17:53:41 10° SSE
USA 234 3.5 17:44:38 10° NE 17:51:03 56° SE 17:57:26 10° SSW
SL-16 R/B 3.9 17:49:52 10° ESE 17:51:15 11° E 17:52:37 10° E
MOS 1 Rocket 3.5 17:47:04 10° NNE 17:51:56 89° ESE 17:57:06 10° SSW
IRS-1C Rocket 4.1 17:46:55 10° SSE 17:52:04 61° ENE 17:57:17 10° N
Okean O Rocket 3.2 17:51:40 10° S 17:55:46 40° W 17:59:53 10° NNW
Cosmos 2369 3.7 17:52:12 10° SSW 17:57:48 70° ESE 18:03:28 10° NNE
USA 305 3.2 17:54:30 10° SSW 17:58:38 52° SE 18:02:47 10° ENE
PSLV R/B 4.3 17:55:38 10° NNE 17:59:33 41° E 18:03:24 10° S
SAR-Lupe-4 4.4 17:56:40 10° NE 17:59:50 29° E 18:02:59 10° SSE
Cosmos 1607 4.4 17:55:35 10° SW 18:01:57 71° NW 18:08:27 10° NNE
CZ-4 R/B 1.2 18:02:07 10° SSE 18:05:54 62° ENE 18:09:44 10° N
Meteor 1-10 Rocket 4.3 18:00:37 10° N 18:06:25 89° E 18:12:03 10° S
USA 307 3.1 18:02:15 10° SW 18:06:25 56° SE 18:10:33 10° ENE
SeaSat 1 2.5 18:01:48 10° NNE 18:06:44 63° ESE 18:11:36 10° SSW
SKYMED 2 4.1 18:04:29 10° N 18:08:49 65° WNW 18:13:07 10° SSW
Cosmos 2263 Rocket 2.9 18:03:56 10° N 18:08:52 31° NE 18:13:46 10° ESE
Cosmos 2074 Rocket 4.5 18:06:08 10° SSE 18:11:50 38° E 18:17:32 10° NNE
FALCON 9 DEB 2.9 18:09:37 10° SW 18:12:46 69° SE 18:15:24 14° ENE
USA 306 2.9 18:08:33 10° SW 18:12:47 66° SE 18:16:45 12° ENE
USA 308 2.9 18:12:26 10° SW 18:16:40 68° SE 18:20:27 13° ENE
Cosmos 2227 Rocket 3.6 18:11:22 10° NW 18:16:42 43° WSW 18:21:58 10° S
SAR-Lupe-1 4.2 18:14:22 10° NNE 18:17:53 50° E 18:21:23 10° S
Cosmos 1743 Rocket 4.0 18:14:10 10° SSW 18:18:29 65° W 18:22:52 10° N
Cosmos 1805 Rocket 3.5 18:15:13 10° S 18:19:31 67° E 18:23:54 10° NNE
H-2A R/B 4.4 18:17:56 10° NNW 18:21:14 24° WNW 18:24:30 10° WSW
ERBS 4.4 18:20:09 10° SE 18:21:02 12° SE 18:21:02 12° SE
Cosmos 1850 Rocket 4.3 18:18:06 10° NNW 18:23:17 72° WSW 18:28:27 10° S
Cosmos 2184 Rocket 4.2 18:18:37 10° SSE 18:24:24 45° E 18:30:14 10° NNE
H-2A R/B 2.2 18:20:10 10° SSE 18:25:34 89° WSW 18:31:04 10° NNW
Meteor 1-27 Rocket 3.6 18:20:46 10° N 18:26:19 81° E 18:31:50 10° SSE
ARGOS 3.1 18:21:03 10° SSE 18:26:24 67° ENE 18:31:48 10° N
SJ-6B 4.2 18:28:39 19° ENE 18:29:12 20° ENE 18:32:12 10° NNE
Cosmos 2228 Rocket 3.4 18:24:47 10° NNW 18:29:19 71° W 18:33:46 10° S
Cosmos 2278 3.6 18:24:31 10° SSW 18:30:10 80° ESE 18:35:54 10° NNE
SL-08 RB Rocket 3.8 18:26:58 10° SSE 18:31:17 50° ENE 18:35:40 10° N
FALCON 9 DEB 3.1 18:28:20 10° WSW 18:31:30 71° NNW 18:33:30 21° NE
Cosmos 1271 Rocket 3.1 18:28:29 10° N 18:32:00 37° ENE 18:35:17 11° SE
COSMOS 2455 2.8 18:26:26 10° NNW 18:32:29 73° ENE 18:38:29 10° SE
GP-B 4.2 18:33:07 22° E 18:33:51 22° ENE 18:37:18 10° NNE
HJ-1C 3.2 18:30:46 10° SSE 18:34:05 74° ENE 18:37:25 10° N
Cosmos 1461 4.1 18:32:02 10° S 18:35:57 27° ESE 18:37:22 23° E
Cosmos 1602 4.5 18:34:00 10° SSE 18:37:22 29° E 18:40:47 10° NNE
Okean 1 4.3 18:35:19 10° NNE 18:38:42 25° ENE 18:38:49 25° ENE
CZ-2C R/B 2.7 18:33:28 10° NNE 18:38:58 59° E 18:44:18 10° S
Cosmos 1689 Rocket 2.3 18:36:16 10° N 18:39:08 68° WNW 18:41:58 10° SSW
CSL-04 Debris 4.1 18:34:16 10° SSE 18:39:39 76° ENE 18:45:07 10° N
Cosmos 1666 Rocket 3.6 18:37:13 10° S 18:41:26 52° E 18:45:40 10° NNE
ATLAS 5 CENTAUR R/B 4.3 18:24:30 10° SW 18:41:41 53° NW 18:46:10 10° NNE
Cosmos 2084 3.9 18:37:41 10° SW 18:41:50 59° NW 18:46:06 10° NNE
Cosmos 1862 Rocket 4.2 18:39:36 10° N 18:43:44 35° ENE 18:45:36 24° ESE
BREEZE-M DEB (TANK) 2.7 18:42:48 10° WNW 18:44:55 35° N 18:46:17 23° NE
Cosmos 1331 Rocket 4.1 18:40:09 10° SSW 18:45:27 82° WNW 18:50:44 10° NNE
Gbstr 26 Del rocket 3.2 18:41:49 10° SW 18:46:10 83° SSE 18:49:30 23° ENE
Cosmos 1844 Rocket 4.3 18:43:06 10° N 18:46:32 16° NE 18:47:04 16° NE
Cosmos 2181 Rocket 4.4 18:40:32 10° NNW 18:46:58 70° W 18:53:19 10° S
CSL-04 Rocket 3.7 18:41:29 10° SSE 18:47:02 82° ENE 18:52:36 10° NNW
NOSS 2-1 (C) 4.3 18:42:27 10° NW 18:47:34 84° NE 18:54:50 10° SE
TSX-5 3.6 18:46:06 10° NNW 18:50:34 87° ENE 18:52:49 22° SSE
Abrixas rocket 4.2 18:49:09 10° S 18:49:31 12° S 18:49:31 12° S
NOSS 2-1 (D) 4.3 18:48:33 10° NW 18:53:41 88° WSW 19:01:03 10° SE
YAOGAN 1 3.8 18:51:43 10° S 18:55:48 42° W 18:59:57 10° NNW
FALCON 9 DEB 3.6 18:52:54 10° WSW 18:56:01 50° NNW 18:56:59 35° NNE
Helios 1A Rocket 3.3 18:52:12 10° S 18:56:15 66° WSW 19:00:19 10° NNW
Okean-O 3.8 18:52:56 10° S 18:57:09 44° W 19:01:24 10° NNW
SL-4 R/B 3.0 18:59:03 10° W 19:02:15 31° NNW 19:03:19 26° NNE
FALCON 9 DEB 4.1 19:01:32 10° W 19:04:30 37° NNW 19:05:10 33° N
Cosmos 1980 Rocket 3.0 19:00:04 10° SW 19:05:35 53° WNW 19:11:11 10° NNE
Sich 1 4.0 19:03:39 10° SSW 19:07:52 48° WNW 19:12:09 10° N
Lacrosse 5 rocket 2.7 19:04:13 10° WNW 19:08:15 37° SW 19:11:00 17° S
Cosmos 1302 Rocket 3.9 19:08:17 10° SSW 19:13:28 90° SW 19:18:43 10° NNE
Cosmos 2322 Rocket 2.4 19:09:42 10° S 19:14:58 44° ESE 19:15:03 44° ESE
Cosmos 2227 4.2 19:11:01 10° NNW 19:16:50 88° WSW 19:20:30 24° SSE
Cosmos 968 Rocket 3.5 19:12:55 10° NNW 19:18:09 61° ENE 19:19:11 50° ESE
Cosmos 1437 4.4 19:17:12 10° NNW 19:19:47 30° W 19:21:07 20° SW
Cosmos 1707 Rocket 4.4 19:16:06 10° NNW 19:20:22 49° W 19:24:34 10° SSW
Cosmos 1867 4.4 19:17:35 10° SW 19:22:50 49° NW 19:28:06 10° NNE
Cosmos 1633 Rocket 3.4 19:19:33 10° SSW 19:23:56 65° W 19:28:21 10° N
USA 234 3.8 19:29:23 19° NE 19:34:02 53° NNW 19:40:21 10° WSW
SL-16 R/B 2.0 19:28:42 10° SSW 19:34:21 80° ESE 19:37:13 31° NNE
Meteor 1-19 Rocket 4.4 19:32:41 10° NNW 19:38:43 79° W 19:42:35 23° S
USA 305 4.0 19:34:46 10° W 19:38:45 36° NNW 19:39:14 35° N
MOS 1 4.1 19:39:28 53° SSE 19:40:54 84° ENE 19:46:38 10° NNW
Resurs 01 Rocket 3.8 19:44:37 16° N 19:44:37 16° N 19:45:35 10° N
Ariane Rocket 2.9 19:43:24 78° SSE 19:43:45 89° WSW 19:48:53 10° NNW
SME Rocket 4.4 19:36:31 10° NNE 19:46:05 89° E 19:52:07 10° SSW
USA 307 4.2 19:42:40 10° W 19:46:36 35° NNW 19:46:43 35° NNW
Cosmos 2154 Rocket 4.4 19:41:51 10° SSW 19:48:01 63° W 19:54:12 10° N
IRS-1A Rocket 4.3 19:47:27 50° S 19:49:02 81° WSW 19:54:42 10° NNW
Nadezhda 3 Rocket 4.4 19:43:02 10° NNW 19:49:18 65° W 19:55:35 10° S
Cosmos 2263 Rocket 3.2 19:47:40 10° NW 19:52:54 42° WSW 19:55:56 23° SSW
USA 306 4.4 19:49:11 10° W 19:52:52 32° NNW 19:52:52 32° NNW
Cosmos 1470 Rocket 4.5 19:51:40 10° SSW 19:56:47 46° NW 20:00:26 10° N
USA 308 4.4 19:53:06 10° W 19:56:37 31° NNW 19:56:37 31° NNW
Meteor 1-14 Rocket 4.3 19:52:54 10° SSW 19:58:31 73° WNW 20:04:05 10° N
SJ-6B 4.4 20:04:15 35° WNW 20:04:15 35° WNW 20:07:25 10° NNW
Meteor 2-4 Rocket 4.0 20:06:26 10° NNW 20:11:52 69° WNW 20:11:52 69° WNW
BREEZE-M DEB (TANK) 4.2 20:01:20 10° W 20:17:13 79° N 20:17:21 78° NNE
Cosmos 1844 Rocket 4.0 20:25:41 10° NNW 20:28:45 34° NNW 20:28:45 34° NNW
Cosmos 2322 Rocket 4.1 20:54:14 10° WSW 20:57:03 24° W 20:57:03 24° W
SL-16 R/B 4.5 21:15:07 10° W 21:19:08 20° NW 21:19:18 19° NW
